Location: Tel Aviv
(32.0670°N, 34.7670°E)
Time: 02:12:31
(UTC+02:00)

Transit 4A - Pass Details

Date: 07 December 2023
Orbit: 869 x 974 km, 66.8° (Epoch: 23 February)

Event Time Altitude Azimuth Distance (km) Brightness Sun altitude
Exits shadow 05:20:19 15° 318° (NW) 2,243 9.4 -14.1°
Maximum altitude 05:25:00 46° 250° (WSW) 1,177 8.1 -13.2°
Drops below altitude 10° 05:30:33 10° 178° (S) 2,525 10.4 -12.1°
Sets 05:33:06 0° 173° (S) 3,450 11.3 -11.6°
